Lawrenceville, IL

9:55 PM CST on February 11, 2016 (GMT -0600)
Lawrenceville-Vincennes International

Weather History for KLWV - October, 2012

Change the Weather History Date:

Tuesday, October 30, 2012

  Actual Average Record
Temperature  
Mean Temperature 46 °F 53 °F  
Max Temperature 51 °F 64 °F 79 °F (2004)
Min Temperature 40 °F 42 °F 30 °F (2005)
Degree Days  
Heating Degree Days 19 12  
Month to date heating degree days 304 245  
Since 1 July heating degree days 369 284  
Cooling Degree Days 0 0  
Month to date cooling degree days 15 31  
Year to date cooling degree days 1707 1385  
Moisture  
Dew Point 27 °F    
Average Humidity 51    
Maximum Humidity 60    
Minimum Humidity 41    
Precipitation  
Precipitation 0.00 in 0.07 in 0.54 in (2013)
Month to date precipitation 3.25 3.91  
Year to date precipitation 26.92 36.45  
Sea Level Pressure  
Sea Level Pressure 29.85 in    
Wind  
Wind Speed 19 mph (NW)    
Max Wind Speed 30 mph    
Max Gust Speed 37 mph    
Visibility 10 miles    
Events      
T = Trace of Precipitation, MM = Missing Value Source: NWS Daily Summary

Daily Weather History Graph

Daily Weather History Graph

Search for Another Location

Airport or City:

Trip Planner

Search our weather history database for the weather conditions in past years. The results will help you decide how hot, cold, wet, or windy it might be!

Date:

Astronomy

Oct. 30, 2012 Rise Set
Actual Time 7:15 AM CDT 5:51 PM CDT
Civil Twilight 6:48 AM CDT 6:19 PM CDT
Nautical Twilight 6:16 AM CDT 6:50 PM CDT
Astronomical Twilight 5:45 AM CDT 7:21 PM CDT
Moon 6:22 PM CDT (10/30) 8:01 AM CDT (10/30)
Length of Visible Light 11h 31m
Length of Day
10h 36m
Full, 99% of the Moon is Illuminated
Oct 30
Full
Nov 6
Last Quarter
Nov 13
New
Nov 20
First Quarter
Nov 28
Full

Hourly Weather History & Observations

Time (CDT) Temp. Windchill Dew Point Humidity Pressure Visibility Wind Dir Wind Speed Gust Speed Precip Events Conditions
12:53 AM 43.0 °F 34.5 °F 27.0 °F 53% 29.97 in 10.0 mi NNW 19.6 mph 27.6 mph N/A   Clear
1:53 AM 42.1 °F 33.6 °F 27.0 °F 55% 29.94 in 10.0 mi NW 18.4 mph - N/A   Clear
2:53 AM 42.1 °F 33.9 °F 27.0 °F 55% 29.93 in 10.0 mi NNW 17.3 mph - N/A   Clear
3:53 AM 42.1 °F 32.6 °F 27.0 °F 55% 29.89 in 10.0 mi NNW 23.0 mph 33.4 mph N/A   Clear
4:53 AM 41.0 °F 31.9 °F 27.0 °F 57% 29.88 in 10.0 mi NW 19.6 mph 27.6 mph N/A   Clear
5:53 AM 41.0 °F 31.4 °F 27.0 °F 57% 29.86 in 10.0 mi NW 21.9 mph 26.5 mph N/A   Clear
6:53 AM 39.9 °F 30.2 °F 27.0 °F 60% 29.86 in 10.0 mi NW 20.7 mph 27.6 mph N/A   Clear
7:53 AM 39.9 °F 30.0 °F 27.0 °F 60% 29.84 in 10.0 mi NW 21.9 mph 28.8 mph N/A   Clear
8:53 AM 39.9 °F 29.0 °F 27.0 °F 60% 29.84 in 10.0 mi NW 26.5 mph 31.1 mph N/A   Clear
9:53 AM 41.0 °F 30.9 °F 28.0 °F 60% 29.83 in 10.0 mi NW 24.2 mph 32.2 mph N/A   Clear
10:53 AM 44.1 °F 35.7 °F 28.0 °F 53% 29.83 in 10.0 mi NW 20.7 mph 28.8 mph N/A   Clear
11:53 AM 45.0 °F 36.2 °F 28.0 °F 52% 29.83 in 10.0 mi NNW 24.2 mph 31.1 mph N/A   Clear
12:53 PM 46.0 °F 37.6 °F 28.0 °F 50% 29.81 in 10.0 mi NW 24.2 mph 32.2 mph N/A   Clear
1:53 PM 50.0 °F - 28.9 °F 44% 29.80 in 10.0 mi NW 19.6 mph 31.1 mph N/A   Clear
2:53 PM 50.0 °F - 28.0 °F 43% 29.79 in 10.0 mi NW 20.7 mph 28.8 mph N/A   Scattered Clouds
3:53 PM 51.1 °F - 28.0 °F 41% 29.79 in 10.0 mi NNW 16.1 mph - N/A   Mostly Cloudy
4:53 PM 50.0 °F - 28.0 °F 43% 29.80 in 10.0 mi NNW 13.8 mph - N/A   Overcast
5:53 PM 48.9 °F - 27.0 °F 43% 29.81 in 10.0 mi NNW 16.1 mph 24.2 mph N/A   Overcast
6:53 PM 48.9 °F - 26.1 °F 41% 29.83 in 10.0 mi NW 18.4 mph 24.2 mph N/A   Overcast
7:53 PM 48.0 °F - 26.1 °F 42% 29.84 in 10.0 mi NNW 17.3 mph - N/A   Mostly Cloudy
8:53 PM 46.0 °F 39.0 °F 26.1 °F 46% 29.84 in 10.0 mi NNW 17.3 mph 24.2 mph N/A   Scattered Clouds
9:53 PM 45.0 °F 39.3 °F 26.1 °F 48% 29.85 in 10.0 mi NNW 11.5 mph - N/A   Mostly Cloudy
10:53 PM 44.1 °F 37.7 °F 26.1 °F 49% 29.84 in 10.0 mi NNW 12.7 mph - N/A   Scattered Clouds
11:53 PM 44.1 °F 37.7 °F 25.0 °F 47% 29.83 in 10.0 mi NW 12.7 mph - N/A   Clear